W6DRZ Weather Reports


Display with metric or nautical units.
time (UTC)temp
F
wind
direction
speed
MPH
gust
MPH
rain 1hr
in
rain 24hr
in
rain mn
in
humidity
%
barometer
mb
20260506232220 71 293 7.0 17.0 0.00 0.00 0.00 65 1018.0
20260506231059 70 298 7.0 13.0 0.00 0.00 0.00 65 1018.1
20260506230602 71 273 6.0 13.0 0.00 0.00 0.00 63 1018.1
20260506230055 71 284 7.0 16.0 0.00 0.00 0.00 65 1018.0
20260506225923 70 325 9.0 16.0 0.00 0.00 0.00 64 1018.1
20260506225059 71 286 8.0 16.0 0.00 0.00 0.00 64 1018.3
20260506224925 71 279 7.0 14.0 0.00 0.00 0.00 63 1018.3
20260506224052 72 220 7.0 13.0 0.00 0.00 0.00 64 1018.3
20260506223917 72 269 7.0 17.0 0.00 0.00 0.00 61 1018.3
20260506223052 73 271 5.0 17.0 0.00 0.00 0.00 60 1018.3
20260506222555 72 218 3.0 9.0 0.00 0.00 0.00 59 1018.3
20260506222053 71 11 3.0 9.0 0.00 0.00 0.00 60 1018.4
20260506221548 70 46 3.0 10.0 0.00 0.00 0.00 62 1018.5
20260506221048 71 266 4.0 10.0 0.00 0.00 0.00 59 1018.8
20260506220554 72 77 3.0 10.0 0.00 0.00 0.00 60 1018.8
20260506220047 71 355 2.0 8.0 0.00 0.00 0.00 60 1018.8
20260506215545 72 296 3.0 11.0 0.00 0.00 0.00 60 1018.8
20260506215051 71 160 4.0 11.0 0.00 0.00 0.00 59 1018.8
20260506214922 71 44 3.0 7.0 0.00 0.00 0.00 59 1018.9
20260506214042 71 0 2.0 7.0 0.00 0.00 0.00 60 1018.9
20260506213542 70 41 2.0 5.0 0.00 0.00 0.00 60 1018.9
20260506213046 71 12 2.0 7.0 0.00 0.00 0.00 57 1018.9
20260506212543 71 293 3.0 8.0 0.00 0.00 0.00 58 1019.0
20260506212042 71 274 4.0 10.0 0.00 0.00 0.00 59 1018.9
20260506211544 70 33 3.0 10.0 0.00 0.00 0.00 57 1019.1
20260506211043 71 36 2.0 8.0 0.00 0.00 0.00 58 1019.1
20260506210542 71 348 2.0 8.0 0.00 0.00 0.00 59 1019.0
20260506210435 71 11 2.0 7.0 0.00 0.00 0.00 58 1019.1
20260506205542 71 51 3.0 9.0 0.00 0.00 0.00 56 1019.3
20260506205041 71 36 3.0 9.0 0.00 0.00 0.00 59 1019.2
20260506204542 70 30 3.0 9.0 0.00 0.00 0.00 59 1019.3
20260506204043 69 342 2.0 9.0 0.00 0.00 0.00 59 1019.3
20260506203543 70 55 2.0 9.0 0.00 0.00 0.00 59 1019.4
20260506203042 70 44 2.0 6.0 0.00 0.00 0.00 60 1019.4
20260506202544 70 30 2.0 7.0 0.00 0.00 0.00 60 1019.4
20260506202043 71 280 2.0 7.0 0.00 0.00 0.00 61 1019.5
20260506201926 70 280 1.0 7.0 0.00 0.00 0.00 62 1019.6
20260506201045 69 113 2.0 8.0 0.00 0.00 0.00 65 1019.6
20260506200543 68 283 2.0 8.0 0.00 0.00 0.00 62 1019.6
20260506200043 68 42 2.0 7.0 0.00 0.00 0.00 63 1019.6
20260506195546 68 355 3.0 9.0 0.00 0.00 0.00 66 1019.7
20260506195427 68 48 3.0 9.0 0.00 0.00 0.00 64 1019.8
20260506194543 67 38 3.0 8.0 0.00 0.00 0.00 64 1019.9
20260506194044 66 14 3.0 8.0 0.00 0.00 0.00 67 1019.9
20260506193927 66 202 3.0 11.0 0.00 0.00 0.00 66 1019.9
20260506193046 68 0 2.0 11.0 0.00 0.00 0.00 65 1020.0
20260506192928 66 313 2.0 9.0 0.00 0.00 0.00 66 1020.0
20260506192041 67 85 2.0 5.0 0.00 0.00 0.00 65 1020.0
20260506191543 65 286 4.0 10.0 0.00 0.00 0.00 69 1020.0
20260506191043 64 28 4.0 10.0 0.00 0.00 0.00 69 1020.3
20260506190544 65 38 2.0 10.0 0.00 0.00 0.00 68 1020.2
20260506190043 67 80 1.0 7.0 0.00 0.00 0.00 68 1020.2
20260506185937 65 76 2.0 7.0 0.00 0.00 0.00 69 1020.3
20260506185044 65 168 2.0 9.0 0.00 0.00 0.00 72 1020.3
20260506184945 64 31 4.0 9.0 0.00 0.00 0.00 71 1020.3
20260506184042 64 5 3.0 9.0 0.00 0.00 0.00 69 1020.4
20260506183543 66 36 1.0 7.0 0.00 0.00 0.00 69 1020.3
20260506183041 64 21 2.0 4.0 0.00 0.00 0.00 69 1020.4
20260506182537 66 54 2.0 4.0 0.00 0.00 0.00 69 1020.3
20260506182035 65 102 1.0 4.0 0.00 0.00 0.00 68 1020.4
20260506181535 65 255 1.0 4.0 0.00 0.00 0.00 68 1020.3
20260506181033 64 24 2.0 5.0 0.00 0.00 0.00 71 1020.4
20260506180538 63 41 1.0 5.0 0.00 0.00 0.00 71 1020.4
20260506180027 63 42 2.0 5.0 0.00 0.00 0.00 71 1020.4
20260506175527 63 32 3.0 6.0 0.00 0.00 0.00 72 1020.3
20260506175027 63 36 2.0 6.0 0.00 0.00 0.00 71 1020.4
20260506174524 63 27 1.0 3.0 0.00 0.00 0.00 70 1020.3
20260506174033 63 123 1.0 4.0 0.00 0.00 0.00 71 1020.4
20260506173524 63 92 1.0 5.0 0.00 0.00 0.00 72 1020.4
20260506173024 62 183 1.0 5.0 0.00 0.00 0.00 71 1020.4
20260506172523 62 86 1.0 3.0 0.00 0.00 0.00 72 1020.5
20260506172408 62 86 1.0 3.0 0.00 0.00 0.00 71 1020.4
20260506171519 62 124 1.0 3.0 0.00 0.00 0.00 73 1020.4
20260506171019 62 172 1.0 3.0 0.00 0.00 0.00 72 1020.4
20260506170516 61 97 1.0 2.0 0.00 0.00 0.00 73 1020.5
20260506170015 62 185 0.0 2.0 0.00 0.00 0.00 75 1020.5
20260506165515 60 185 0.0 2.0 0.00 0.00 0.00 77 1020.5
20260506165403 60 185 0.0 2.0 0.00 0.00 0.00 79 1020.4
20260506164638 58 185 1.0 3.0 0.00 0.00 0.00 78 1020.5
20260506164548 59 185 0.0 2.0 0.00 0.00 0.00 80 1020.4
20260506163015 58 185 1.0 2.0 0.00 0.00 0.00 80 1020.5
20260506162922 58 185 0.0 2.0 0.00 0.00 0.00 81 1020.5
20260506162012 57 185 0.0 1.0 0.00 0.00 0.00 81 1020.5
20260506161507 57 185 0.0 1.0 0.00 0.00 0.00 82 1020.5
20260506161005 57 185 1.0 3.0 0.00 0.00 0.00 82 1020.5
20260506160501 57 185 1.0 3.0 0.00 0.00 0.00 83 1020.4
20260506155957 57 185 1.0 3.0 0.00 0.00 0.00 84 1020.5
20260506155847 57 185 0.0 3.0 0.00 0.00 0.00 84 1020.5
20260506154955 57 163 0.0 2.0 0.00 0.00 0.00 85 1020.5
20260506154454 56 163 1.0 4.0 0.00 0.00 0.00 86 1020.4
20260506153952 56 163 0.0 4.0 0.00 0.00 0.00 86 1020.4
20260506153456 56 156 0.0 2.0 0.00 0.00 0.00 87 1020.3
20260506152959 56 252 0.0 2.0 0.00 0.00 0.00 87 1020.4
20260506152453 56 252 0.0 2.0 0.00 0.00 0.00 88 1020.4
20260506151954 56 252 0.0 2.0 0.00 0.00 0.00 88 1020.4
20260506151824 56 294 0.0 1.0 0.00 0.00 0.00 89 1020.4
20260506150950 55 294 0.0 1.0 0.00 0.00 0.00 89 1020.4
20260506150448 55 294 0.0 1.0 0.00 0.00 0.00 89 1020.3
20260506145949 55 294 0.0 2.0 0.00 0.00 0.00 90 1020.3
20260506145829 55 286 0.0 2.0 0.00 0.00 0.00 90 1020.3
20260506144946 55 286 0.0 2.0 0.00 0.00 0.00 90 1020.3
20260506144822 54 286 0.0 2.0 0.00 0.00 0.00 90 1020.3
20260506143951 54 286 1.0 2.0 0.00 0.00 0.00 90 1020.3
20260506143453 54 286 1.0 3.0 0.00 0.00 0.00 91 1020.3
20260506143314 54 286 1.0 5.0 0.00 0.00 0.00 91 1020.3
20260506142437 54 299 2.0 5.0 0.00 0.00 0.00 91 1020.1
20260506141934 53 313 2.0 5.0 0.00 0.00 0.00 91 1020.1
20260506141434 53 299 2.0 5.0 0.00 0.00 0.00 91 1020.1
20260506140938 53 289 2.0 4.0 0.00 0.00 0.00 91 1020.1
20260506140817 53 291 2.0 4.0 0.00 0.00 0.00 91 1020.0
20260506135940 53 289 2.0 4.0 0.00 0.00 0.00 91 1019.9
20260506135441 53 289 2.0 4.0 0.00 0.00 0.00 91 1019.9
20260506135259 53 289 2.0 4.0 0.00 0.00 0.00 91 1019.9
20260506134431 53 289 1.0 3.0 0.00 0.00 0.00 91 1019.8
20260506134302 53 289 1.0 2.0 0.00 0.00 0.00 91 1019.8
20260506133432 53 289 1.0 2.0 0.00 0.00 0.00 91 1019.7
20260506132934 53 289 1.0 2.0 0.00 0.00 0.00 91 1019.7
20260506132434 52 289 1.0 3.0 0.00 0.00 0.00 91 1019.6
20260506131929 52 289 2.0 4.0 0.00 0.00 0.00 90 1019.6
20260506131813 52 289 2.0 4.0 0.00 0.00 0.00 91 1019.5
20260506130933 52 289 0.0 4.0 0.00 0.00 0.00 90 1019.6
20260506130814 52 289 0.0 1.0 0.00 0.00 0.00 90 1019.6
20260506125932 52 289 0.0 1.0 0.00 0.00 0.00 90 1019.6
20260506125429 52 289 0.0 0.0 0.00 0.00 0.00 90 1019.6
20260506124931 52 289 0.0 2.0 0.00 0.00 0.00 90 1019.5
20260506124431 52 289 1.0 4.0 0.00 0.00 0.00 90 1019.4
20260506123930 52 289 2.0 4.0 0.00 0.00 0.00 90 1019.4
20260506123430 52 289 1.0 4.0 0.00 0.00 0.00 90 1019.4
20260506122930 52 289 1.0 3.0 0.00 0.00 0.00 90 1019.3
20260506122429 52 289 1.0 3.0 0.00 0.00 0.00 90 1019.4
20260506121930 52 289 1.0 3.0 0.00 0.00 0.00 90 1019.3
20260506121428 52 289 1.0 3.0 0.00 0.00 0.00 90 1019.4
20260506120930 52 289 0.0 2.0 0.00 0.00 0.00 90 1019.4
20260506120429 51 289 0.0 2.0 0.00 0.00 0.00 90 1019.2
20260506115922 51 289 1.0 3.0 0.00 0.00 0.00 90 1019.3
20260506115421 51 289 1.0 3.0 0.00 0.00 0.00 89 1019.1
20260506114922 51 289 2.0 3.0 0.00 0.00 0.00 89 1019.2
20260506114422 51 309 2.0 4.0 0.00 0.00 0.00 89 1019.1
20260506114003 51 281 3.0 4.0 0.00 0.01 0.00 89 1019.0
20260506113927 51 309 3.0 4.0 0.00 0.01 0.00 89 1019.0
20260506112415 51 271 2.0 4.0 0.00 0.01 0.00 88 1019.0
20260506111918 52 298 2.0 4.0 0.00 0.01 0.00 88 1018.9
20260506111417 52 296 2.0 4.0 0.00 0.01 0.00 88 1019.1
20260506110916 52 296 2.0 6.0 0.00 0.01 0.00 88 1018.9
20260506110745 52 296 2.0 6.0 0.00 0.01 0.00 88 1018.8
20260506105916 52 304 1.0 4.0 0.00 0.01 0.00 88 1018.7
20260506105413 52 277 1.0 3.0 0.00 0.01 0.00 88 1018.7
20260506104909 53 277 2.0 3.0 0.00 0.01 0.00 88 1018.5
20260506104410 53 277 2.0 3.0 0.00 0.01 0.00 88 1018.7
20260506103909 52 277 2.0 3.0 0.00 0.01 0.00 87 1018.5
20260506103736 53 277 2.0 4.0 0.00 0.02 0.00 87 1018.5
20260506102913 53 277 3.0 6.0 0.00 0.02 0.00 87 1018.5
20260506102410 53 269 3.0 6.0 0.00 0.02 0.00 87 1018.7
20260506101910 53 288 3.0 6.0 0.00 0.02 0.00 86 1018.5
20260506101733 53 287 3.0 4.0 0.00 0.02 0.00 86 1018.5
20260506101218 53 287 3.0 4.0 0.00 0.02 0.00 86 1018.5
20260506100409 54 259 2.0 4.0 0.00 0.02 0.00 86 1018.7
20260506095906 54 305 1.0 2.0 0.00 0.02 0.00 85 1018.4
20260506095719 54 305 1.0 3.0 0.00 0.02 0.00 86 1018.5
20260506094907 54 305 1.0 3.0 0.00 0.02 0.00 86 1018.5
20260506094407 55 305 1.0 3.0 0.00 0.02 0.00 85 1018.7
20260506094223 55 305 1.0 2.0 0.00 0.02 0.00 85 1018.7
20260506093406 55 300 0.0 2.0 0.00 0.02 0.00 85 1018.7
20260506092905 55 300 0.0 1.0 0.00 0.02 0.00 85 1018.5
20260506092403 55 300 0.0 2.0 0.00 0.02 0.00 85 1018.5
20260506091902 55 300 1.0 2.0 0.00 0.02 0.00 85 1018.4
20260506091404 55 300 1.0 4.0 0.00 0.02 0.00 85 1018.5
20260506090902 55 300 2.0 4.0 0.00 0.02 0.00 85 1018.5
20260506090714 55 300 2.0 6.0 0.00 0.02 0.00 85 1018.5
20260506085901 55 292 2.0 6.0 0.00 0.02 0.00 85 1018.5
20260506085402 55 281 2.0 6.0 0.00 0.02 0.00 85 1018.5
20260506084901 55 281 2.0 6.0 0.00 0.02 0.00 85 1018.4
20260506084403 55 292 2.0 4.0 0.00 0.02 0.00 85 1018.5
20260506083902 55 232 1.0 4.0 0.00 0.02 0.00 85 1018.5
20260506083403 55 266 2.0 6.0 0.00 0.02 0.00 85 1018.5
20260506083045 55 313 3.0 7.0 0.00 0.02 0.00 85 1018.7
20260506081927 55 264 2.0 6.0 0.00 0.02 0.00 85 1018.5
20260506081402 56 250 3.0 8.0 0.00 0.02 0.00 84 1018.7
20260506080903 56 248 3.0 8.0 0.00 0.02 0.00 84 1018.7
20260506080402 56 269 2.0 8.0 0.00 0.02 0.00 84 1018.7
20260506073403 55 267 1.0 3.0 0.00 0.02 0.00 83 1018.4
20260506072902 55 267 1.0 4.0 0.00 0.02 0.00 82 1018.4
20260506072359 55 267 2.0 6.0 0.00 0.02 0.00 82 1018.4
20260506071855 55 267 2.0 6.0 0.00 0.02 0.00 82 1018.4
20260506071356 55 267 2.0 6.0 0.00 0.02 0.00 82 1018.4
20260506070854 55 267 2.0 6.0 0.00 0.02 0.00 82 1018.3
20260506070357 55 284 2.0 5.0 0.00 0.02 0.00 82 1018.2
20260506062352 55 301 2.0 7.0 0.00 0.02 0.02 81 1018.2
20260506061852 55 302 2.0 6.0 0.00 0.02 0.02 81 1018.0
20260506061350 55 303 3.0 7.0 0.00 0.02 0.02 81 1017.9
20260506060856 55 284 3.0 8.0 0.00 0.02 0.02 81 1017.9
20260506060347 55 275 3.0 8.0 0.00 0.02 0.02 81 1017.8
20260506051336 56 327 3.0 9.0 0.00 0.02 0.02 81 1017.6
20260506050836 56 290 3.0 7.0 0.00 0.02 0.02 81 1017.6
20260506050333 56 267 4.0 9.0 0.00 0.02 0.02 81 1017.6
20260506050218 56 274 4.0 9.0 0.00 0.02 0.02 81 1017.4
20260506044833 56 284 4.0 9.0 0.00 0.02 0.02 81 1017.4
20260506044331 56 290 5.0 8.0 0.00 0.02 0.02 81 1017.4
20260506043832 56 269 4.0 8.0 0.00 0.02 0.02 81 1017.3
20260506043713 56 279 5.0 9.0 0.00 0.02 0.02 81 1017.3
20260506042829 56 285 4.0 9.0 0.00 0.02 0.02 80 1017.3
20260506042331 56 277 4.0 10.0 0.00 0.02 0.02 80 1017.2
20260506042218 56 276 4.0 10.0 0.00 0.02 0.02 80 1017.2
20260506041329 56 278 4.0 8.0 0.00 0.02 0.02 80 1017.2
20260506040830 56 304 5.0 9.0 0.00 0.02 0.02 80 1017.1
20260506040714 56 256 6.0 11.0 0.00 0.02 0.02 80 1017.0
20260506035829 56 279 7.0 12.0 0.00 0.02 0.02 80 1017.0
20260506035339 56 263 7.0 12.0 0.00 0.02 0.02 80 1016.9
20260506034837 56 278 6.0 11.0 0.00 0.02 0.02 80 1016.8
20260506034705 56 278 5.0 11.0 0.00 0.02 0.02 80 1016.8
20260506033829 56 314 7.0 11.0 0.00 0.02 0.02 79 1016.8
20260506033659 56 264 7.0 12.0 0.00 0.02 0.02 79 1016.7
20260506032830 56 260 7.0 13.0 0.00 0.02 0.02 79 1016.7
20260506032329 56 270 8.0 13.0 0.00 0.02 0.02 79 1016.6
20260506032202 56 282 8.0 12.0 0.00 0.02 0.02 79 1016.6
20260506031722 56 271 7.0 12.0 0.00 0.02 0.02 79 1016.6
20260506030831 56 257 6.0 12.0 0.00 0.02 0.02 79 1016.4
20260506030323 56 295 5.0 12.0 0.00 0.02 0.02 79 1016.4
20260506025815 57 290 5.0 11.0 0.00 0.02 0.02 79 1016.3
20260506025309 57 271 4.0 10.0 0.00 0.02 0.02 79 1016.2
20260506024802 57 278 4.0 11.0 0.00 0.02 0.02 78 1016.2
20260506024302 57 302 4.0 11.0 0.00 0.02 0.02 78 1016.1
20260506023803 58 300 5.0 12.0 0.00 0.02 0.02 77 1016.1
20260506023302 58 238 7.0 12.0 0.00 0.02 0.02 77 1015.9
20260506022804 58 281 7.0 13.0 0.00 0.02 0.02 77 1015.8
20260506022305 59 266 7.0 13.0 0.00 0.02 0.02 76 1015.8
20260506021804 59 260 8.0 15.0 0.00 0.02 0.02 76 1015.8
20260506021303 59 284 8.0 15.0 0.00 0.02 0.02 75 1015.8
20260506020803 59 271 7.0 13.0 0.00 0.02 0.02 75 1015.8
20260506020301 59 284 8.0 13.0 0.00 0.02 0.02 75 1015.8
20260506015802 59 281 7.0 13.0 0.00 0.02 0.02 75 1015.8
20260506015301 59 270 6.0 13.0 0.00 0.02 0.02 75 1015.8
20260506014803 59 258 6.0 13.0 0.00 0.02 0.02 74 1015.8
20260506014301 59 247 7.0 13.0 0.00 0.02 0.02 74 1015.9
20260506013802 60 281 7.0 12.0 0.00 0.02 0.02 74 1016.0
20260506013254 60 294 6.0 12.0 0.00 0.02 0.02 73 1015.7
20260506012746 60 248 6.0 12.0 0.00 0.02 0.02 73 1015.8
20260506012239 60 280 7.0 13.0 0.00 0.02 0.02 73 1015.8
20260506011735 60 292 7.0 14.0 0.00 0.02 0.02 72 1015.8
20260506011235 60 275 6.0 14.0 0.00 0.02 0.02 72 1015.7
20260506011126 60 255 5.0 14.0 0.00 0.02 0.02 72 1015.8
20260506010236 61 284 6.0 12.0 0.00 0.02 0.02 71 1015.7
20260506005735 61 263 7.0 13.0 0.00 0.02 0.02 69 1015.6
20260506005237 62 247 7.0 13.0 0.00 0.02 0.02 69 1015.7
20260506004736 61 239 7.0 14.0 0.00 0.02 0.02 72 1015.7
20260506004627 60 271 9.0 18.0 0.00 0.02 0.02 73 1015.7
20260506003735 60 277 8.0 18.0 0.00 0.02 0.02 73 1015.7
20260506003237 60 269 8.0 15.0 0.00 0.02 0.02 73 1015.7
20260506002735 60 240 9.0 15.0 0.00 0.02 0.02 73 1015.6
20260506002237 60 279 9.0 15.0 0.00 0.02 0.02 73 1015.5
20260506001735 60 286 10.0 18.0 0.00 0.02 0.02 72 1015.5
20260506001236 60 275 8.0 18.0 0.00 0.02 0.02 73 1015.4
20260506000736 60 290 7.0 17.0 0.00 0.02 0.02 74 1015.4
20260506000240 60 344 8.0 17.0 0.00 0.02 0.02 73 1015.5
20260506000117 60 229 7.0 15.0 0.00 0.02 0.02 74 1015.4
20260505235242 60 246 7.0 17.0 0.00 0.02 0.02 74 1015.5
20260505234744 60 302 6.0 17.0 0.00 0.02 0.02 74 1015.6
20260505234243 60 252 7.0 16.0 0.00 0.02 0.02 73 1015.6
20260505233743 60 274 9.0 16.0 0.00 0.02 0.02 74 1015.6
20260505233246 60 230 9.0 15.0 0.00 0.02 0.02 73 1015.7
20260505232743 60 281 10.0 19.0 0.00 0.02 0.02 73 1015.7